星链-35641(STARLINK-35641)

导读

STARLINK-35641是美国SpaceX公司星链(Starlink)卫星互联网项目的低轨通信卫星,于2025年10月25日由美国发射升空。它运行在近地轨道,依托星链网络的规模化部署,为全球用户,尤其是网络覆盖薄弱的偏远区域提供高速、低延迟的宽带互联网接入服务,同时可支持商业通信乃至特殊行业通信需求,是星链全球互联网络布局的重要组成部分。

基本信息
目录编号:
66167
目录名称:
STARLINK-35641
国际标识:
2025-240X
轨道中心:
EARTH
卫星名称:
星链-35641
卫星全名:
星链-35641(STARLINK-35641)
卫星状态:
在轨 (已飞行315 天)
发射日期:
2025-10-25 UTC
国别 :
美国 (US)
星等 :
--
轨道信息
数据来源 国际轨道数据
星历时间: 2026-09-05T18:54:37+0800
9小时前
查看轨道信息
半长轴: 6840.87km
偏心率: 0.0001091
轨道倾角: 53.159°
近地点辐角 86.066°
升交点赤经 304.097°
平近点角 274.047°
近地点: 461.986km
远地点: 463.48km
周期: 93.848分钟
每日圈数: 15.343902
详细信息
固有亮度:
5
最大亮度:
2.5
卫星平台:
Starlink V1.0
覆盖范围:
全球
运营商:
太空探索技术公司
运营商所在国:
美国
制造商(研发单位):
太空探索技术公司
制造商所在国:
美国
使用方式:
暂无
卫星简介
Starlink 计划是 SpaceX 推出的全球卫星互联网项目,通过发射低轨道卫星,为全球尤其是偏远地区提供高速、低延迟的互联网服务。自 2019 年起,Starlink 已部署数千颗卫星,旨在缩小全球数字鸿沟,推动互联网普及。该项目还为军事、航空等行业提供通信支持,带来广泛经济效益。
2D轨道图
3D轨道图
轨道高度分析图
轨道倾角分析图
轨道综合分析图
查看轨道综合分析图
交会数据列表
事件ID 空间交会对象 最接近时刻(TCA) 交会距离 交会风险概率(CRP) 交会风险指数(CRI) 操作
CDM_260908-020806-370406-616722
2026-09-08T
02:08:54+0000
1.405 km
极远距离
7.245059E-6 低风险 0.52